Stations météo

réclame
Mon MeteoGroup
Pantelleria, Italie (16470): Température de l'air & dewpoint: 15.01.2019 17:00:00 - 21.01.2019 17:00:00 (CET)Pantelleria, Italie (16470): Vitesse du vent: 15.01.2019 17:00:00 - 21.01.2019 17:00:00 (CET)Pantelleria, Italie (16470): Direction du vent: 15.01.2019 17:00:00 - 21.01.2019 17:00:00 (CET)Pantelleria, Italie (16470): reduced air pressure: 15.01.2019 17:00:00 - 21.01.2019 17:00:00 (CET)Pantelleria, Italie (16470): visibility: 15.01.2019 17:00:00 - 21.01.2019 17:00:00 (CET)Pantelleria, Italie (16470): Ensoleillement: 15.01.2019 17:00:00 - 21.01.2019 17:00:00 (CET)
Date & Time tt [°C] td [°C] ff [km/h] ff [knt] dd ppp [hPa] vv [km] sd [min]
21.01.2019 17:00:00 13,4 10,8 18 10 SSW 1008,5 25 48
21.01.2019 16:00:00 13,8 11,1 22 12 SSW 1008,4 25 60
21.01.2019 15:00:00 14,0 11,2 18 10 SSW 1008,5 20 48
21.01.2019 14:00:00 14,0 11,2 24 13 SSW 1008,7 20 48
21.01.2019 13:00:00 13,8 11,1 28 15 WSW 1009,3 15 36
21.01.2019 12:00:00 14,0 11,4 28 15 WSW 1009,4 15 60
21.01.2019 11:00:00 14,8 12,0 28 15 WSW 1010,2 15 24
21.01.2019 10:00:00 14,2 10,8 37 20 SSW 1010,1 15 60
21.01.2019 09:00:00 13,0 9,8 28 15 WSW 1009,8 15 36
21.01.2019 08:00:00 12,8 9,6 34 18 SSW 1010,2 10 0
21.01.2019 07:00:00 12,8 9,6 37 20 SSW 1010,3 10 0
21.01.2019 06:00:00 - - - - - - - -
21.01.2019 05:00:00 - - - - - - - -
21.01.2019 04:00:00 - - - - - - - -
21.01.2019 03:00:00 - - - - - - - -
21.01.2019 02:00:00 - - - - - - - -
21.01.2019 01:00:00 - - - - - - - -
21.01.2019 00:00:00 - - - - - - - -
20.01.2019 23:00:00 - - - - - - - -
20.01.2019 22:00:00 - - - - - - - -
20.01.2019 21:00:00 - - - - - - - -
20.01.2019 20:00:00 - - - - - - - -
20.01.2019 19:00:00 10,8 7,9 18 10 SSW 1012,9 15 0
20.01.2019 18:00:00 11,0 8,0 13 7 SSW 1012,8 20 0
20.01.2019 17:00:00 12,0 9,0 18 10 WSW 1012,7 25 30
20.01.2019 16:00:00 12,2 9,2 18 10 WSW 1012,7 30 60
20.01.2019 15:00:00 12,2 9,0 11 6 WSW 1012,7 30 60
20.01.2019 14:00:00 12,2 9,0 18 10 W 1013,5 30 60
20.01.2019 13:00:00 12,4 9,2 11 6 W 1013,6 30 60
20.01.2019 12:00:00 12,0 8,8 13 7 W 1014,7 30 60
20.01.2019 11:00:00 11,8 8,7 18 10 W 1014,8 30 60
20.01.2019 10:00:00 11,0 8,0 13 7 WNW 1015,1 25 18
20.01.2019 09:00:00 10,4 7,5 15 8 WNW 1014,8 20 0
20.01.2019 08:00:00 9,8 7,0 9 5 WNW 1014,2 18 0
20.01.2019 07:00:00 9,8 7,0 15 8 W 1013,9 12 0
20.01.2019 06:00:00 - - - - - - - -
20.01.2019 05:00:00 - - - - - - - -
20.01.2019 04:00:00 - - - - - - - -
20.01.2019 03:00:00 - - - - - - - -
20.01.2019 02:00:00 - - - - - - - -
20.01.2019 01:00:00 - - - - - - - -
20.01.2019 00:00:00 - - - - - - - -
19.01.2019 23:00:00 - - - - - - - -
19.01.2019 22:00:00 - - - - - - - -
19.01.2019 21:00:00 - - - - - - - -
19.01.2019 20:00:00 - - - - - - - -
19.01.2019 19:00:00 11,0 8,2 5 3 W 1014,7 12 0
19.01.2019 18:00:00 12,2 9,4 5 3 W 1013,8 15 24
19.01.2019 17:00:00 12,4 9,4 5 3 WNW 1013,9 10 60
19.01.2019 16:00:00 12,4 9,4 9 5 W 1014,3 20 60
19.01.2019 15:00:00 12,2 9,2 9 5 W 1014,4 25 60
19.01.2019 14:00:00 12,4 9,4 11 6 WNW 1014,6 25 60
19.01.2019 13:00:00 12,8 10,0 5 3 WNW 1015,2 30 60
19.01.2019 12:00:00 12,6 9,6 8 4 WNW 1016,2 10 60
19.01.2019 11:00:00 12,4 9,6 11 6 WNW 1016,5 30 60
19.01.2019 10:00:00 12,0 9,2 8 4 NW 1016,0 30 18
19.01.2019 09:00:00 11,2 8,4 9 5 NW 1015,6 30 0
19.01.2019 08:00:00 10,8 8,0 9 5 WNW 1015,2 20 0
19.01.2019 07:00:00 11,4 8,6 11 6 W 1014,9 12 0
19.01.2019 06:00:00 - - - - - - - -
19.01.2019 05:00:00 - - - - - - - -
19.01.2019 04:00:00 - - - - - - - -
19.01.2019 03:00:00 - - - - - - - -
19.01.2019 02:00:00 - - - - - - - -
19.01.2019 01:00:00 - - - - - - - -
19.01.2019 00:00:00 - - - - - - - -
18.01.2019 23:00:00 - - - - - - - -
18.01.2019 22:00:00 - - - - - - - -
18.01.2019 21:00:00 - - - - - - - -
18.01.2019 20:00:00 - - - - - - - -
18.01.2019 19:00:00 11,8 9,0 4 2 SW 1015,6 20 0
18.01.2019 18:00:00 12,6 9,8 5 3 WNW 1015,2 20 0
18.01.2019 17:00:00 13,0 10,2 8 4 WNW 1015,0 20 48
18.01.2019 16:00:00 13,0 10,2 8 4 WNW 1015,0 20 54
18.01.2019 15:00:00 14,0 11,0 11 6 W 1014,8 20 60
18.01.2019 14:00:00 14,6 10,6 9 5 SW 1015,0 20 60
18.01.2019 13:00:00 14,8 10,4 9 5 WSW 1015,4 15 60
18.01.2019 12:00:00 15,0 11,2 9 5 WSW 1016,4 15 60
18.01.2019 11:00:00 14,6 11,0 9 5 WSW 1016,6 15 42
18.01.2019 10:00:00 14,0 11,2 9 5 WSW 1016,6 15 60
18.01.2019 09:00:00 12,2 9,4 9 5 SSW 1016,6 15 54
18.01.2019 08:00:00 11,2 8,4 18 10 SSW 1015,9 10 0
18.01.2019 07:00:00 11,2 8,4 18 10 SSW 1015,8 10 0
18.01.2019 06:00:00 - - - - - - - -
18.01.2019 05:00:00 - - - - - - - -
18.01.2019 04:00:00 - - - - - - - -
18.01.2019 03:00:00 - - - - - - - -
18.01.2019 02:00:00 - - - - - - - -
18.01.2019 01:00:00 - - - - - - - -
18.01.2019 00:00:00 - - - - - - - -
17.01.2019 23:00:00 - - - - - - - -
17.01.2019 22:00:00 - - - - - - - -
17.01.2019 21:00:00 - - - - - - - -
17.01.2019 20:00:00 - - - - - - - -
17.01.2019 19:00:00 11,8 9,0 11 6 SSW 1017,3 10 0
17.01.2019 18:00:00 12,2 9,4 18 10 SSW 1017,1 10 0
17.01.2019 17:00:00 12,8 10,0 18 10 SSW 1017,2 15 0
17.01.2019 16:00:00 13,2 10,4 18 10 WSW 1017,4 20 42
17.01.2019 15:00:00 14,0 11,2 18 10 WSW 1017,4 20 60
17.01.2019 14:00:00 14,0 11,0 - - - - - -
17.01.2019 13:00:00 14,6 11,6 24 13 SW 1018,2 20 60
17.01.2019 12:00:00 14,6 11,6 29 16 WSW 1019,1 25 60
17.01.2019 11:00:00 13,8 10,8 24 13 SW 1019,7 25 60
17.01.2019 10:00:00 12,8 9,9 22 12 SW 1019,8 20 30
17.01.2019 09:00:00 12,2 9,4 18 10 SW 1019,7 18 0
17.01.2019 08:00:00 11,2 8,4 22 12 SW 1019,8 18 0
17.01.2019 07:00:00 11,0 8,3 16 9 SW 1019,9 15 0
17.01.2019 06:00:00 - - - - - - - -
17.01.2019 05:00:00 - - - - - - - -
17.01.2019 04:00:00 - - - - - - - -
17.01.2019 03:00:00 - - - - - - - -
17.01.2019 02:00:00 - - - - - - - -
17.01.2019 01:00:00 - - - - - - - -
17.01.2019 00:00:00 - - - - - - - -
16.01.2019 23:00:00 - - - - - - - -
16.01.2019 22:00:00 - - - - - - - -
16.01.2019 21:00:00 - - - - - - - -
16.01.2019 20:00:00 - - - - - - - -
16.01.2019 19:00:00 10,0 6,8 13 7 SSW 1022,6 15 0
16.01.2019 18:00:00 12,0 7,5 16 9 SSW 1022,3 18 18
16.01.2019 17:00:00 12,2 7,5 16 9 SW 1022,1 20 60
16.01.2019 16:00:00 13,0 7,0 18 10 SSW 1022,1 10 60
16.01.2019 15:00:00 13,2 7,3 21 11 SSW 1022,3 30 60
16.01.2019 14:00:00 13,4 7,4 21 11 SW 1022,7 30 60
16.01.2019 13:00:00 13,2 7,4 21 11 SSW 1023,4 30 60
16.01.2019 12:00:00 13,0 8,0 13 7 SSW 1023,9 30 60
16.01.2019 11:00:00 12,6 7,9 21 11 S 1024,7 30 60
16.01.2019 10:00:00 11,8 7,9 13 7 S 1024,5 30 42
16.01.2019 09:00:00 10,4 6,8 11 6 S 1024,3 30 12
16.01.2019 08:00:00 9,2 5,6 8 4 S 1024,3 30 0
16.01.2019 07:00:00 9,6 6,0 5 3 S 1023,4 15 0
16.01.2019 06:00:00 - - - - - - - -
16.01.2019 05:00:00 - - - - - - - -
16.01.2019 04:00:00 - - - - - - - -
16.01.2019 03:00:00 - - - - - - - -
16.01.2019 02:00:00 - - - - - - - -
16.01.2019 01:00:00 - - - - - - - -
16.01.2019 00:00:00 - - - - - - - -
15.01.2019 23:00:00 - - - - - - - -
15.01.2019 22:00:00 - - - - - - - -
15.01.2019 21:00:00 - - - - - - - -
15.01.2019 20:00:00 - - - - - - - -
15.01.2019 19:00:00 11,6 7,9 13 7 NNW 1020,7 15 0
15.01.2019 18:00:00 12,0 8,7 15 8 N 1019,9 15 0
15.01.2019 17:00:00 12,4 9,0 15 8 N 1019,1 15 54

tt = Température de l'air
td = dewpoint
ff = Vitesse du vent
dd = Direction du vent
ppp = reduced air pressure
vv = visibility
sd = Ensoleillement

stations d'obs. à proximité